www.pogodaiklimat.ru

Погода и климат >> Архив погоды >> Парагвай >> Concepcion


ПОГОДА в Concepcion

  • Прогноз погоды в Concepcion
  • Монитор погоды в Concepcion
  • Климат города

АРХИВ ПОГОДЫ в Concepcion

Время (UTC), дата Ветер
(напр.,м/с)
 
Видим.   Явления Облачность Т
(С)
Тd
(С)
f
(%)
Тe
(С)
Тes
(С)
Комфортность P
(гПа)
Po
(гПа)
Тmin
(С)
Tmax
(С)
R
(мм)
R24
(мм)
S
(см)
18 7.12 Ю 4 20 км 4/0
[Ci]
+27.6 +15.1 46 +30 +40 жарко 1017.6 1009.0
21 7.12 Ю 4 20 км 4/0
[Ci sp]
+26.6 +11.7 39 +28 +29 жарко 1016.5 1007.9
00 8.12 Ю 2 20 км ясно +22.4 +16.7 70 +27 +27 душно 1017.5 1008.7 +28.4
03 8.12 Ю 4 20 км ясно +20.6 +16.3 76 +24 +24 комфорт 1018.7 1009.9
06 8.12 Ю 3 20 км ясно +18.6 +16.2 86 +20 +20 1018.1 1009.2
09 8.12 Ю 2 20 км ясно +17.4 +16.4 94 +18 +18 1017.9 1009.0
12 8.12 ЮВ 6 20 км ясно +23.0 +14.5 59 +27 +30 душно 1017.8 1009.1 +17.0
15 8.12 ЮВ 7 20 км ясно +28.0 +10.2 33 +28 +35 жарко 1016.7 1008.1
18 8.12 Ю 3 20 км ясно +30.2 +12.7 34 +31 +46 жарко 1013.6 1005.1
21 8.12 В 4 20 км ясно +30.8 +10.4 28 +31 +32 жарко 1011.5 1003.0
00 9.12 Ю 2 20 км ясно +23.0 +16.7 68 +28 +28 душно 1011.3 1002.6 +31.2
09 9.12 штиль 0 20 км ясно +16.8 +15.1 90 +17 +17 1011.7 1002.8
12 9.12 СВ 8 20 км ясно +26.4 +14.2 47 +29 +30 жарко 1013.3 1004.7 +16.6
15 9.12 СВ 6 20 км ясно +30.8 +16.7 43 +34 +42 очень
душно
1013.1 1004.7
18 9.12 СВ 4 20 км ясно +33.8 +17.1 37 +37 +48 очень
душно
1011.3 1002.9
21 9.12 СВ 4 20 км 4/1 1000 м
[Cu hum Ci]
+34.2 +18.5 40 +39 +40 очень
душно
1009.8 1001.4
00 10.12 В 2 20 км 1/0
[Ci sp]
+27.2 +22.3 75 +36 +36 очень
душно
1011.0 1002.4 +34.6
03 10.12 В 2 20 км 3/0
[Ci sp]
+25.6 +21.5 78 +33 +33 очень
душно
1012.9 1004.3
06 10.12 В 2 20 км ясно +26.2 +19.6 67 +32 +32 очень
душно
1011.3 1002.7
09 10.12 В 3 20 км 4/0
[Ac cast]
+24.4 +19.0 72 +29 +29 душно 1013.1 1004.4
12 10.12 СВ 4 20 км 5/0
[Ac trans]
+29.2 +18.0 51 +34 +38 очень
душно
1014.6 1006.0 +24.4
15 10.12 СВ 7 20 км 1/0
[Ac cast]
+34.2 +18.9 41 +39 +44 очень
душно
1014.3 1005.9
18 10.12 СЗ 2 20 км 1/1 1000 м
[Cu hum]
+36.8 +19.1 36 +42 +57 опасность
перегрева
1011.7 1003.4
21 10.12 СВ 2 20 км 1/1 1000 м
[Cu med, cong]
+36.8 +19.1 36 +42 +44 опасность
перегрева
1009.9 1001.6
00 11.12 В 1 20 км 1/0
[Ci sp]
+30.6 +20.8 56 +38 +38 очень
душно
1010.7 1002.2 +37.5
03 11.12 В 2 20 км ясно +28.0 +20.6 64 +35 +35 очень
душно
1011.0 1003.2
06 11.12 В 2 20 км ясно +26.8 +20.7 69 +33 +33 очень
душно
1010.7 1002.1
09 11.12 В 2 20 км ясно +25.6 +21.5 78 +33 +33 очень
душно
1011.3 1002.7
12 11.12 С 6 20 км ясно +31.2 +23.5 64 +42 +45 опасность
перегрева
1013.5 1005.0 +25.5
15 11.12 С 6 20 км 3/3 1000 м
[Cu hum]
+35.6 +23.1 49 +46 +52 опасность
перегрева
1013.0 1004.7
18 11.12 С 6 20 км 4/4 1000 м
[Cu hum]
+36.0 +22.9 47 +46 +49 опасность
перегрева
1010.5 1002.2
21 11.12 СВ 4 20 км 1/1 1000 м
[Cu med, cong]
+35.2 +21.7 46 +43 +45 опасность
перегрева
1009.2 1000.8
00 12.12 СВ 3 20 км ясно +30.4 +22.6 63 +40 +40 очень
душно
1009.1 1000.6 +37.2
03 12.12 штиль 0 20 км ясно +28.2 +21.2 66 +36 +36 очень
душно
1010.1 1001.6
06 12.12 СВ 2 20 км ясно +25.2 +20.2 74 +31 +31 очень
душно
1010.2 1001.5
09 12.12 штиль 0 20 км 1/0
[Ci]
+24.4 +20.5 79 +30 +30 очень
душно
1011.8 1003.1
12 12.12 С 4 20 км 3/0
[Ci]
+30.8 +20.8 55 +38 +43 очень
душно
1012.1 1003.6 +24.2
15 12.12 С 8 20 км 4/4 1000 м
[Cu hum]
+35.4 +21.7 45 +43 +45 опасность
перегрева
1012.2 1003.8
18 12.12 С 6 20 км 6/4 1000 м
[Cu med, cong Ci sp]
+36.6 +21.1 41 +44 +47 опасность
перегрева
1010.5 1002.2
21 12.12 З 2 20 км 9/6 1000 м
[Cu med, cong Ac cuf Ci ing]
+35.8 +23.0 48 +46 +46 опасность
перегрева
1009.2 1000.9
00 13.12 В 6 20 км зарница 9/8 1000 м
[Cb cap Ac cuf Ci ing]
+25.4 +20.4 74 +31 +31 очень
душно
1008.7 1000.1 +37.2
03 13.12 В 4 20 км 6/3 1000 м
[Sc Ci ing]
+24.4 +20.6 79 +30 +30 очень
душно
1011.4 1002.7
06 13.12 СВ 4 20 км ясно +25.0 +20.6 77 +31 +31 очень
душно
1010.1 1001.5
09 13.12 СВ 6 20 км 3/0
[Ci]
+26.2 +19.8 68 +32 +32 очень
душно
1010.0 1001.4
12 13.12 С 6 20 км 5/0
[Ci sp]
+29.8 +22.6 65 +39 +42 очень
душно
1011.2 1002.7 +24.4
15 13.12 С 6 20 км 3/0
[Ci sp]
+35.2 +22.0 46 +43 +51 опасность
перегрева
1010.1 1001.7
18 13.12 С 7 20 км 8/8 1050 м
[Cu Sc]
+37.8 +20.6 37 +44 +45 опасность
перегрева
1006.9 998.6
21 13.12 штиль 0 20 км 4/4 1200 м
[Cu Sc]
+30.0 +22.8 65 +40 +42 очень
душно
1005.7 997.2
00 14.12 В 2 20 км ясно +29.2 +23.1 70 +39 +39 очень
душно
1005.7 997.2 +38.0
03 14.12 В 3 20 км ясно +27.8 +22.3 72 +36 +36 очень
душно
1007.1 998.5
06 14.12 СВ 3 20 км ясно +27.0 +21.0 70 +34 +34 очень
душно
1006.3 997.7
09 14.12 В 1 20 км 1/0
[Ci fib]
+24.8 +20.6 77 +31 +31 очень
душно
1006.3 997.7
12 14.12 С 5 20 км 1/0
[Ci fib]
+30.0 +21.2 59 +38 +42 очень
душно
1007.8 999.3 +24.6
15 14.12 С 9 20 км 4/4 900 м
[Cu hum]
+35.6 +21.3 44 +43 +44 опасность
перегрева
1008.6 1000.3

 

Местоположение метеостанции Concepcion (Парагвай): широта -23.41 долгота -57.30 высота над уровнем моря 74 м.

В архиве по умолчанию представлена погода в Concepcion за последнюю неделю. Архивные данные за месяц целиком и за предыдущие месяцы, начиная с января 2011 года, Вы можете получить, выбрав интересующий диапазон дат из раскрывающегося списка и нажав кнопку "Ввод!".


*Определитесь, кто Вы:
робот инопланетянин человек

Внимание! Время в таблицах - всемирное. Для получения местного времени необходимо прибавить поправку, которая в Concepcion равна -4 ч.

Смотрите также архив погоды в соседних городах и на ближайших метеорологических станциях:

Погода в San Pedro (Парагвай) (76 км)
Погода в Puerto Casado (Парагвай) (138 км)
Погода в Pozo Colorado (Парагвай) (163 км)
Погода в San Estanislao (Парагвай) (164 км)
Погода в Pedro Juan Caballer (Парагвай) (185 км)
Погода в Ponta Pora (Бразилия) (191 км)
Погода в Asuncion (Парагвай) (206 км)
Погода в Ponta Pora (Бразилия) (206 км)
Погода в Amambai (Бразилия) (206 км)
Погода в Gral. Bruguez (Парагвай) (216 км)

Пояснения к столбцам:

Ветер - указаны скорость ветра в м/с - средняя за 10 мин, порывы в срок и между сроками (в фигурных скобках) и направление, откуда дует ветер: С - северный, СВ - северо-восточный, В - восточный, ЮВ - юго-восточный, Ю - южный, ЮЗ - юго-западный, З - западный, СЗ - северо-западный.
Видимость - горизонтальная дальность видимости в метрах или километрах. При видимости от 1 до 10 км при отсутствии осадков обычно наблюдается дымка, при ухудшении видимости до 1 км и менее - туман. В сухую погоду видимость может ухудшаться дымом, пылью или мглою.
Явления - указаны атмосферные явления, наблюдавшиеся в срок или в последний час перед сроком; фигурными скобками обозначены явления, наблюдавшиеся между сроками (за 1-3 часа до срока); квадратными скобками обозначены град или гололедные отложения с указанием их диаметра в мм.
Облачность - указаны через наклонную черту общая и нижняя облачность в баллах и высота нижней границы облаков в метрах; квадратными скобками обозначены формы облаков: Ci - перистые, Cs - перисто-слоистые, Cc - перисто-кучевые, Ac - высококучевые, As - высокослоистые, Sc - слоисто-кучевые, Ns - слоисто-дождевые, Cu - кучевые, Cb - кучево-дождевые. Подробнее классификацию облаков см. в Атласе облаков (PDF).
T - Температура воздуха - температура, измеренная на высоте 2 м над землей.
Td - Температура точки росы - температура, при понижении до которой содержащийся в воздухе водяной пар достигнет насыщения.
f - Относительная влажность воздуха - влажноcть воздуха, измеренная на высоте 2 м над землей.
Te - Эффективная температура - температура, которую ощущает одетый по сезону человек в тени. Характеристика душности погоды. При расчете учитывается влияние влажности воздуха и скорости ветра на теплоощущения человека.
Tes - Эффективная температура на солнце - температура, которую ощущает человек, с поправкой на солнечный нагрев. Характеристика знойности погоды. Зависит от высоты солнца над горизонтом, облачности и скорости ветра. Ночью, в пасмурную погоду, а также при ветре 12 м/с и более поправка равна нулю.
P - Атмосферное давление - приведенное к уровню моря атмосферное давление.
Po - Атмосферное давление - измеренное на уровне метеостанции атмосферное давление.
Tmin - Минимальная температура - минимум температуры воздуха на высоте 2 м над землей.
Tmax - Максимальная температура - максимум температуры воздуха на высоте 2 м над землей.
R - Количество осадков - Количество выпавших осадков за период времени, мм. При наведении курсора мыши на число - период времени, за который выпало указанное количество осадков.
R24 - Количество осадков - Количество выпавших осадков за 24 часа, мм.
S - Снежный покров - Высота снежного покрова, см. При наведении курсора мыши на число - состояние снежного покрова и степень покрытия местности в баллах.